RADUGA 24

Satellite information

Favourite Embed

Satellite Type and Status

PAYLOADIN ORBIT

Key statistics

Satellite RADUGA 24 at a glance.

Uptime

13150

Days in orbit

Revolutions

≈ 1.0

Per day

Orbit

OTHER

Other

Inclination

12.7

Latest

Satellite identification and parameters

Extended collection of information and parameters for RADUGA 24.

Object identification

Identified? True

Debris? False

Object name: RADUGA 24

International designator: 1989-098A

Object number (NORAD): 20367

Object ID (CCSDS): 20367

Country: COMMONWEALTH OF INDEPENDENT STATES (CIS)

Current information (Y/N): Y

RCS size: LARGE

Orbital parameters

Period: 1435.136 minutes

Inclination: 12.7043 deg

SMA: 42145.931 km

Apoapsis: 35785.383 km

Periapsis: 35750.208 km

RAAN: 335.094 deg

Eccentricy: 0.0004173

Argument of periapsis: 280.4057 deg

Mean anomaly: 88.2702 deg

Mean motion: 1.00338889 rev/day

Mean motion (dot): -0.00000146 rev/day2

B* drag term: 0.0 1/REarth

Two-line elements (TLE)

Creation date: Dec. 16, 2025, 2:19 a.m.

Reference frame: TEME

Reference center: EARTH

Epoch: Dec. 15, 2025, 12:02 p.m. UTC

TLE line 0: 0 RADUGA 24

TLE line 1: 1 20367U 89098A 25349.50200712 -.00000146 00000-0 00000-0 0 9994

TLE line 2: 2 20367 12.7043 335.0940 0004173 280.4057 88.2702 1.00338889131138

Live tracking on map

Real-time ground track for satellite RADUGA 24.

In-orbit conjunctions

A list of the most updated potential collisions computed for object RADUGA 24.

Target Orbit TCA Probability of collision Miss distance Type
SL-12 R/B(2) OTHER 2025-10-05 19:32:23 TBA 2161.0 (m) ROCKET BODY
RADUGA 3 GEO 2025-08-01 11:51:14 TBA 868.0 (m) PAYLOAD
EKRAN 11 OTHER 2024-07-17 11:21:21 TBA 1080.0 (m) PAYLOAD

Associated space launch

Geostationary communications satellite for military and governmental puposes

RADUGA 24 was lifted into orbit during the mission ‘Proton | Raduga 24’, on board a Proton space rocket.

The launch took place on Dec. 15, 1989, 11:30 a.m. from 81/23 (81L).

For more information about the launch, click the button.

Launch to space Proton | Raduga 24
Proton | Raduga 24

Agency: N/A

Status: Launch Successful

Launch date: Dec. 15, 1989, 11:30 a.m. UTC

Rocket: Proton

Launch pad: 81/23 (81L)

Location: Baikonur Cosmodrome, Republic of Kazakhstan

...

Latest news about this satellite

There are no fresh news available about this satellite. Check back as we update our databases every day.


Newsletter sign-up

Weekly statistics, charts and insights to help you stay on top of the space industry.